TimeEDT,TemperatureF,Dew PointF,Humidity,Sea Level PressureIn,VisibilityMPH,Wind Direction,Wind SpeedMPH,Gust SpeedMPH,PrecipitationIn,Events,Conditions,WindDirDegrees,DateUTC
12:54 AM,75.9,73.0,91,30.01,4.0,Calm,Calm,-,0.01,,Mostly Cloudy,0,2013-07-10 04:54:00
1:54 AM,75.9,72.0,87,30.00,7.0,Variable,3.5,-,N/A,,Mostly Cloudy,0,2013-07-10 05:54:00
2:54 AM,73.9,72.0,93,29.99,7.0,Calm,Calm,-,N/A,,Clear,0,2013-07-10 06:54:00
3:54 AM,73.9,71.1,91,29.97,6.0,Calm,Calm,-,N/A,,Partly Cloudy,0,2013-07-10 07:54:00
4:54 AM,73.9,71.1,91,29.97,7.0,Calm,Calm,-,N/A,,Clear,0,2013-07-10 08:54:00
5:54 AM,73.9,72.0,93,29.97,7.0,Calm,Calm,-,N/A,,Mostly Cloudy,0,2013-07-10 09:54:00
6:54 AM,75.0,72.0,90,29.97,6.0,Calm,Calm,-,N/A,,Overcast,0,2013-07-10 10:54:00
7:46 AM,77.0,73.4,89,29.96,7.0,Variable,3.5,-,N/A,,Mostly Cloudy,0,2013-07-10 11:46:00
7:54 AM,77.0,73.0,88,29.96,7.0,South,4.6,-,N/A,,Mostly Cloudy,190,2013-07-10 11:54:00
8:40 AM,78.8,73.4,83,29.96,8.0,SW,5.8,-,N/A,,Overcast,220,2013-07-10 12:40:00
8:54 AM,80.1,75.0,85,29.96,8.0,Calm,Calm,-,N/A,,Overcast,0,2013-07-10 12:54:00
9:04 AM,78.8,73.4,83,29.96,8.0,SW,5.8,-,N/A,,Overcast,220,2013-07-10 13:04:00
9:54 AM,81.0,73.9,79,29.96,9.0,WSW,6.9,-,N/A,,Overcast,240,2013-07-10 13:54:00
10:54 AM,82.9,73.0,72,29.96,10.0,SW,6.9,-,N/A,,Mostly Cloudy,230,2013-07-10 14:54:00
11:14 AM,84.2,73.4,70,29.95,10.0,WSW,9.2,-,N/A,,Mostly Cloudy,240,2013-07-10 15:14:00
11:42 AM,86.0,73.4,66,29.94,10.0,WSW,10.4,-,N/A,,Mostly Cloudy,240,2013-07-10 15:42:00
11:52 AM,86.0,73.4,66,29.94,10.0,WSW,8.1,-,N/A,,Scattered Clouds,250,2013-07-10 15:52:00
11:54 AM,86.0,73.0,65,29.94,10.0,WSW,11.5,-,N/A,,Mostly Cloudy,250,2013-07-10 15:54:00
12:03 PM,84.2,71.6,66,29.94,10.0,West,12.7,-,N/A,,Mostly Cloudy,260,2013-07-10 16:03:00
12:10 PM,87.8,71.6,58,29.94,10.0,WSW,11.5,-,N/A,,Scattered Clouds,250,2013-07-10 16:10:00
12:54 PM,86.0,70.0,59,29.94,10.0,WSW,12.7,20.7,N/A,,Mostly Cloudy,240,2013-07-10 16:54:00
1:54 PM,77.0,72.0,84,29.93,10.0,Calm,Calm,-,0.01,,Mostly Cloudy,0,2013-07-10 17:54:00
2:54 PM,80.1,72.0,76,29.89,10.0,SW,6.9,-,0.01,,Clear,230,2013-07-10 18:54:00
3:54 PM,84.9,72.0,65,29.89,10.0,Variable,5.8,-,0.02,,Clear,0,2013-07-10 19:54:00
4:54 PM,86.0,72.0,63,29.86,10.0,Variable,6.9,-,N/A,,Partly Cloudy,0,2013-07-10 20:54:00
5:54 PM,87.1,70.0,57,29.83,10.0,WSW,9.2,17.3,N/A,,Clear,240,2013-07-10 21:54:00
6:54 PM,86.0,70.0,59,29.86,10.0,SW,6.9,-,N/A,,Partly Cloudy,230,2013-07-10 22:54:00
7:54 PM,84.9,70.0,61,29.86,10.0,SW,5.8,-,N/A,,Clear,220,2013-07-10 23:54:00
8:54 PM,84.0,70.0,63,29.87,10.0,Variable,3.5,-,N/A,,Scattered Clouds,0,2013-07-11 00:54:00
9:54 PM,82.9,70.0,65,29.88,10.0,SW,4.6,-,N/A,,Mostly Cloudy,220,2013-07-11 01:54:00
10:54 PM,80.1,71.1,74,29.86,10.0,Calm,Calm,-,N/A,,Clear,0,2013-07-11 02:54:00
11:54 PM,79.0,73.0,82,29.85,10.0,Variable,3.5,-,N/A,,Clear,0,2013-07-11 03:54:00